Radiation Dose at Monitoring Post of Fukushima Daini Nuclear Power Station
Date,Time,MP-1(microSv/h),MP-2(microSv/h),MP-3(microSv/h),MP-4(microSv/h),MP-5(microSv/h),MP-6(microSv/h),MP-7(microSv/h),Wind Direction,Wind Velocity(m/s),Rain
2019/10/11,00:00,0.187,0.165,0.281,0.263,0.264,0.143,0.088,north-northwest,3.7,Yes
2019/10/11,00:10,0.189,0.165,0.279,0.263,0.265,0.145,0.089,north-northwest,3.9,Yes
2019/10/11,00:20,0.187,0.164,0.282,0.265,0.264,0.143,0.089,north-northwest,3.3,Yes
2019/10/11,00:30,0.191,0.166,0.279,0.262,0.265,0.145,0.091,north,4.2,Yes
2019/10/11,00:40,0.189,0.166,0.281,0.263,0.265,0.145,0.091,north-northwest,5.2,Yes
2019/10/11,00:50,0.190,0.166,0.278,0.261,0.264,0.146,0.091,north-northwest,5.6,Yes
2019/10/11,01:00,0.189,0.166,0.281,0.262,0.264,0.144,0.090,north-northwest,5.5,Yes
2019/10/11,01:10,0.191,0.166,0.279,0.261,0.265,0.146,0.091,north-northwest,5.1,Yes
2019/10/11,01:20,0.189,0.168,0.281,0.264,0.265,0.146,0.092,north-northwest,5.3,Yes
2019/10/11,01:30,0.191,0.166,0.279,0.262,0.265,0.146,0.091,northwest,5.7,Yes
2019/10/11,01:40,0.189,0.166,0.279,0.263,0.264,0.145,0.090,north-northwest,5.9,Yes
2019/10/11,01:50,0.189,0.166,0.279,0.261,0.264,0.146,0.090,north-northwest,5.3,No
2019/10/11,02:00,0.187,0.164,0.278,0.261,0.264,0.143,0.090,north-northwest,6.3,Yes
2019/10/11,02:10,0.188,0.164,0.280,0.260,0.264,0.143,0.089,north-northwest,5.6,Yes
2019/10/11,02:20,0.186,0.164,0.277,0.259,0.264,0.142,0.089,north-northwest,6.1,Yes
2019/10/11,02:30,0.187,0.164,0.278,0.260,0.263,0.144,0.088,north-northwest,6.1,Yes
2019/10/11,02:40,0.185,0.164,0.276,0.260,0.264,0.143,0.089,north-northwest,6.2,Yes
2019/10/11,02:50,0.187,0.163,0.278,0.261,0.263,0.143,0.089,northwest,7.1,Yes
2019/10/11,03:00,0.186,0.165,0.278,0.260,0.264,0.143,0.089,north-northwest,7.4,Yes
2019/10/11,03:10,0.189,0.165,0.279,0.260,0.264,0.145,0.091,north-northwest,7.3,Yes
2019/10/11,03:20,0.188,0.167,0.278,0.261,0.265,0.144,0.091,north-northwest,7.5,Yes
2019/10/11,03:30,0.188,0.166,0.281,0.262,0.265,0.146,0.091,north-northwest,7.7,Yes
2019/10/11,03:40,0.188,0.167,0.279,0.261,0.266,0.146,0.092,northwest,6.8,Yes
2019/10/11,03:50,0.189,0.168,0.280,0.262,0.265,0.146,0.092,northwest,6.6,Yes
2019/10/11,04:00,0.188,0.166,0.277,0.261,0.266,0.145,0.091,north-northwest,6.7,Yes
2019/10/11,04:10,0.188,0.166,0.278,0.261,0.263,0.145,0.091,north-northwest,7.2,Yes
2019/10/11,04:20,0.188,0.165,0.277,0.259,0.264,0.144,0.090,north-northwest,7.2,Yes
2019/10/11,04:30,0.188,0.165,0.277,0.261,0.263,0.144,0.090,northwest,8.1,Yes
2019/10/11,04:40,0.187,0.164,0.276,0.259,0.264,0.143,0.090,northwest,8.1,Yes
2019/10/11,04:50,0.186,0.166,0.277,0.258,0.261,0.142,0.090,north-northwest,7.9,Yes
2019/10/11,05:00,0.186,0.165,0.275,0.256,0.263,0.144,0.091,northwest,7.4,Yes
2019/10/11,05:10,0.187,0.167,0.273,0.257,0.262,0.143,0.092,north-northwest,7.8,Yes
2019/10/11,05:20,0.187,0.165,0.275,0.256,0.263,0.143,0.093,north-northwest,7.9,Yes
2019/10/11,05:30,0.187,0.166,0.273,0.257,0.262,0.143,0.092,north-northwest,7.1,Yes
2019/10/11,05:40,0.186,0.165,0.275,0.255,0.263,0.142,0.092,northwest,7.5,Yes
2019/10/11,05:50,0.186,0.164,0.272,0.255,0.260,0.142,0.091,north-northwest,7.6,Yes
2019/10/11,06:00,0.186,0.164,0.272,0.253,0.263,0.142,0.091,northwest,8.2,Yes
2019/10/11,06:10,0.185,0.165,0.271,0.255,0.260,0.141,0.090,north-northwest,8.2,Yes
2019/10/11,06:20,0.185,0.165,0.271,0.254,0.263,0.142,0.091,northwest,8.2,Yes
2019/10/11,06:30,0.184,0.163,0.271,0.256,0.262,0.141,0.090,northwest,7.1,Yes
2019/10/11,06:40,0.183,0.164,0.272,0.254,0.264,0.140,0.090,northwest,7.8,Yes
2019/10/11,06:50,0.183,0.163,0.270,0.254,0.260,0.140,0.090,northwest,7.4,Yes
2019/10/11,07:00,0.183,0.164,0.271,0.252,0.263,0.141,0.090,north-northwest,7.9,Yes
2019/10/11,07:10,0.185,0.163,0.269,0.253,0.261,0.141,0.089,northwest,6.2,Yes
2019/10/11,07:20,0.184,0.163,0.273,0.253,0.261,0.140,0.090,north-northwest,5.9,Yes
2019/10/11,07:30,0.183,0.162,0.270,0.254,0.261,0.139,0.089,north-northwest,6.8,No
2019/10/11,07:40,0.182,0.163,0.271,0.252,0.261,0.139,0.089,north-northwest,6.7,Yes
2019/10/11,07:50,0.183,0.163,0.270,0.253,0.260,0.140,0.089,northwest,6.5,No
2019/10/11,08:00,0.182,0.163,0.274,0.253,0.261,0.139,0.088,north-northwest,7.3,No
2019/10/11,08:10,0.182,0.162,0.271,0.254,0.262,0.139,0.089,north-northwest,6.1,No
2019/10/11,08:20,0.182,0.161,0.272,0.253,0.259,0.139,0.088,north-northwest,6.0,No
2019/10/11,08:30,0.182,0.162,0.269,0.254,0.262,0.140,0.087,north-northwest,5.9,No
2019/10/11,08:40,0.181,0.160,0.271,0.253,0.259,0.137,0.088,north-northwest,6.0,No
2019/10/11,08:50,0.181,0.161,0.269,0.254,0.259,0.138,0.087,north-northwest,5.4,No
2019/10/11,09:00,0.180,0.162,0.273,0.252,0.259,0.137,0.087,north-northwest,4.9,No
2019/10/11,09:10,0.182,0.159,0.269,0.253,0.261,0.137,0.086,north-northwest,5.3,No
2019/10/11,09:20,0.180,0.161,0.271,0.252,0.260,0.138,0.086,north-northwest,5.2,No
2019/10/11,09:30,0.181,0.160,0.268,0.253,0.259,0.137,0.086,north-northwest,5.7,No
2019/10/11,09:40,0.180,0.160,0.271,0.253,0.261,0.137,0.086,north-northwest,5.4,No
2019/10/11,09:50,0.180,0.159,0.269,0.251,0.257,0.136,0.086,north-northwest,5.4,No
2019/10/11,10:00,0.181,0.160,0.270,0.254,0.260,0.136,0.086,north-northwest,4.0,No
2019/10/11,10:10,0.179,0.160,0.271,0.251,0.260,0.137,0.085,north-northwest,5.2,No
2019/10/11,10:20,0.182,0.159,0.269,0.254,0.256,0.136,0.086,north-northwest,4.0,No
2019/10/11,10:30,0.180,0.160,0.271,0.254,0.260,0.137,0.085,north-northwest,4.2,No
2019/10/11,10:40,0.179,0.159,0.270,0.251,0.261,0.137,0.085,north-northwest,4.4,No
2019/10/11,10:50,0.181,0.160,0.268,0.255,0.257,0.136,0.086,north-northwest,5.1,No
2019/10/11,11:00,0.179,0.159,0.270,0.254,0.260,0.137,0.086,north-northwest,5.3,No
2019/10/11,11:10,0.180,0.159,0.268,0.252,0.259,0.138,0.085,north-northwest,5.1,No
2019/10/11,11:20,0.183,0.161,0.270,0.255,0.256,0.138,0.086,north-northwest,3.8,No
2019/10/11,11:30,0.179,0.159,0.270,0.253,0.261,0.136,0.085,north,3.5,No
2019/10/11,11:40,0.180,0.158,0.270,0.251,0.261,0.137,0.085,north,4.4,No
2019/10/11,11:50,0.181,0.161,0.271,0.254,0.257,0.137,0.085,north-northeast,4.5,No
2019/10/11,12:00,0.181,0.160,0.270,0.252,0.260,0.136,0.086,north-northeast,3.8,Yes
2019/10/11,12:10,0.182,0.159,0.271,0.254,0.261,0.137,0.085,northeast,4.3,Yes
2019/10/11,12:20,0.181,0.161,0.272,0.255,0.258,0.137,0.087,northeast,4.5,Yes
2019/10/11,12:30,0.183,0.161,0.271,0.253,0.263,0.138,0.086,north-northeast,4.0,Yes
2019/10/11,12:40,0.180,0.161,0.271,0.255,0.259,0.138,0.086,north,4.3,No
2019/10/11,12:50,0.182,0.160,0.272,0.253,0.260,0.137,0.086,north-northeast,3.9,Yes
2019/10/11,13:00,0.181,0.161,0.273,0.255,0.261,0.138,0.086,north,3.3,Yes
2019/10/11,13:10,0.180,0.160,0.270,0.253,0.257,0.137,0.087,north,3.3,No
2019/10/11,13:20,0.182,0.160,0.271,0.253,0.261,0.137,0.086,north,3.1,No
2019/10/11,13:30,0.181,0.160,0.270,0.256,0.258,0.137,0.086,north-northwest,3.2,No
2019/10/11,13:40,0.182,0.161,0.271,0.252,0.260,0.137,0.086,north-northwest,2.0,Yes
2019/10/11,13:50,0.180,0.159,0.269,0.253,0.259,0.137,0.085,northwest,2.5,Yes
2019/10/11,14:00,0.180,0.160,0.269,0.250,0.255,0.137,0.086,north-northwest,2.8,Yes
2019/10/11,14:10,0.180,0.159,0.270,0.252,0.260,0.137,0.086,north-northwest,3.1,Yes
2019/10/11,14:20,0.180,0.158,0.269,0.251,0.258,0.137,0.086,north-northwest,2.6,No
2019/10/11,14:30,0.181,0.159,0.269,0.251,0.257,0.136,0.085,north-northwest,2.9,No
2019/10/11,14:40,0.180,0.158,0.268,0.253,0.259,0.137,0.087,north-northwest,3.2,No
2019/10/11,14:50,0.181,0.158,0.269,0.250,0.256,0.137,0.084,north-northwest,3.6,No
2019/10/11,15:00,0.180,0.158,0.268,0.252,0.258,0.136,0.086,north-northwest,3.5,Yes
2019/10/11,15:10,0.179,0.159,0.270,0.251,0.259,0.136,0.084,north-northwest,3.7,No
2019/10/11,15:20,0.180,0.159,0.269,0.252,0.256,0.137,0.084,north-northwest,3.9,No
2019/10/11,15:30,0.179,0.158,0.268,0.253,0.261,0.136,0.085,north-northwest,3.4,Yes
2019/10/11,15:40,0.180,0.159,0.270,0.251,0.256,0.137,0.084,north-northwest,3.5,Yes
2019/10/11,15:50,0.180,0.158,0.267,0.253,0.257,0.136,0.086,north-northwest,3.6,Yes
2019/10/11,16:00,0.180,0.158,0.271,0.251,0.260,0.136,0.085,north-northwest,3.1,Yes
2019/10/11,16:10,0.181,0.159,0.269,0.251,0.256,0.137,0.085,north-northwest,3.5,Yes
2019/10/11,16:20,0.179,0.160,0.268,0.252,0.259,0.136,0.085,north-northwest,3.8,Yes
2019/10/11,16:30,0.181,0.160,0.272,0.252,0.258,0.138,0.085,north-northwest,4.8,No
2019/10/11,16:40,0.179,0.159,0.269,0.255,0.258,0.137,0.085,north,5.1,No
2019/10/11,16:50,0.179,0.160,0.273,0.253,0.261,0.137,0.086,north,5.6,Yes
2019/10/11,17:00,0.181,0.159,0.268,0.253,0.258,0.137,0.084,north,5.4,Yes
2019/10/11,17:10,0.179,0.159,0.268,0.253,0.259,0.137,0.085,north,4.4,Yes
2019/10/11,17:20,0.180,0.159,0.270,0.252,0.258,0.136,0.085,north,4.0,Yes
2019/10/11,17:30,0.180,0.160,0.268,0.253,0.257,0.138,0.085,north,3.8,Yes
2019/10/11,17:40,0.180,0.158,0.271,0.253,0.260,0.136,0.085,north,4.4,Yes
2019/10/11,17:50,0.181,0.159,0.268,0.253,0.257,0.137,0.085,north-northwest,4.7,Yes
2019/10/11,18:00,0.180,0.158,0.270,0.253,0.260,0.137,0.084,north,4.5,No
2019/10/11,18:10,0.181,0.159,0.269,0.251,0.258,0.136,0.084,north,4.9,No
2019/10/11,18:20,0.180,0.160,0.270,0.252,0.258,0.137,0.085,north,4.2,No
2019/10/11,18:30,0.180,0.159,0.270,0.252,0.259,0.136,0.085,north,4.3,No
2019/10/11,18:40,0.180,0.159,0.270,0.254,0.256,0.137,0.085,north,4.6,No
2019/10/11,18:50,0.179,0.158,0.271,0.252,0.259,0.137,0.085,north,4.2,No
2019/10/11,19:00,0.181,0.160,0.268,0.252,0.257,0.136,0.084,north-northwest,3.9,Yes
2019/10/11,19:10,0.179,0.158,0.269,0.252,0.257,0.137,0.085,north,4.4,Yes
2019/10/11,19:20,0.181,0.158,0.268,0.251,0.259,0.136,0.085,north,4.2,No
2019/10/11,19:30,0.180,0.159,0.269,0.252,0.257,0.136,0.084,north,4.6,Yes
2019/10/11,19:40,0.180,0.160,0.268,0.251,0.258,0.137,0.084,north,4.7,Yes
2019/10/11,19:50,0.182,0.159,0.270,0.253,0.256,0.136,0.085,north,5.1,Yes
2019/10/11,20:00,0.179,0.158,0.270,0.252,0.259,0.136,0.085,north-northwest,5.5,Yes
2019/10/11,20:10,0.179,0.159,0.270,0.252,0.257,0.136,0.084,north-northwest,5.3,Yes
2019/10/11,20:20,0.179,0.158,0.269,0.254,0.258,0.136,0.086,north-northwest,5.4,Yes
2019/10/11,20:30,0.182,0.159,0.268,0.253,0.259,0.137,0.086,north-northwest,5.6,Yes
2019/10/11,20:40,0.180,0.160,0.272,0.253,0.258,0.136,0.085,north-northwest,6.3,Yes
2019/10/11,20:50,0.180,0.160,0.270,0.252,0.259,0.138,0.085,north-northwest,5.8,Yes
2019/10/11,21:00,0.181,0.159,0.271,0.254,0.257,0.137,0.085,north-northwest,5.5,Yes
2019/10/11,21:10,0.180,0.160,0.269,0.252,0.259,0.137,0.085,north-northwest,5.6,Yes
2019/10/11,21:20,0.181,0.159,0.272,0.254,0.259,0.137,0.085,north-northwest,6.9,Yes
2019/10/11,21:30,0.179,0.159,0.269,0.253,0.257,0.137,0.086,north-northwest,7.1,Yes
2019/10/11,21:40,0.181,0.160,0.269,0.252,0.258,0.138,0.086,north-northwest,6.7,Yes
2019/10/11,21:50,0.181,0.161,0.270,0.252,0.258,0.137,0.086,north-northwest,6.9,Yes
2019/10/11,22:00,0.181,0.160,0.269,0.252,0.258,0.138,0.085,north-northwest,7.4,Yes
2019/10/11,22:10,0.180,0.160,0.270,0.254,0.257,0.137,0.085,north-northwest,6.9,Yes
2019/10/11,22:20,0.181,0.159,0.269,0.251,0.259,0.138,0.085,north-northwest,7.3,Yes
2019/10/11,22:30,0.180,0.159,0.271,0.253,0.258,0.137,0.086,north-northwest,6.7,Yes
2019/10/11,22:40,0.181,0.159,0.268,0.251,0.259,0.137,0.085,north-northwest,6.3,Yes
2019/10/11,22:50,0.182,0.161,0.270,0.252,0.257,0.137,0.086,northwest,6.3,Yes
2019/10/11,23:00,0.180,0.160,0.268,0.250,0.259,0.136,0.086,northwest,6.9,No
2019/10/11,23:10,0.181,0.160,0.270,0.253,0.259,0.138,0.086,north-northwest,6.3,Yes
2019/10/11,23:20,0.180,0.159,0.269,0.252,0.257,0.136,0.085,northwest,6.8,Yes
2019/10/11,23:30,0.181,0.160,0.270,0.251,0.259,0.137,0.085,northwest,6.5,Yes
2019/10/11,23:40,0.180,0.159,0.268,0.251,0.256,0.136,0.085,northwest,6.5,Yes
2019/10/11,23:50,0.182,0.159,0.270,0.250,0.258,0.136,0.084,north-northwest,7.1,Yes
